{"data":{"norad_id":68229,"intl_designator":"2026-053Y","name":"STARLINK-37081","alt_names":[],"object_type":"PAYLOAD","status":"ACTIVE","operator":null,"country":"US","launch_date":"2026-03-17","launch_site_code":"AFWTR","launch_vehicle":null,"mission":null,"orbit_class":"UNKNOWN","rcs_meters":null,"size_class":null,"mass_kg":null,"dimensions":null,"purposes":["comms"],"wikipedia_slug":null,"has_3d_model":false,"image_url":null,"decayed_at":null,"tle_current":{"epoch":"2026-05-25T04:00:03.998880Z","epoch_age_seconds":50821,"freshness":"FRESH","line1":"1 68229U 26053Y   26145.16671295 -.01883115  00000+0 -24299-1 0  9993","line2":"2 68229  97.2859  23.1958 0001645  90.2144  37.1099 15.62101154  5935","mean_motion":15.62101154,"eccentricity":0.0001645,"inclination_deg":97.2859,"raan_deg":23.1958,"arg_perigee_deg":90.2144,"mean_anomaly_deg":37.1099,"bstar":-0.024299,"rev_number":593,"period_min":92.183530900842,"perigee_km":380.47671349237,"apogee_km":382.70066324384,"semimajor_km":6759.7256883681,"source":"CELESTRAK","updated_at":"2026-05-25T13:38:21.882102Z"}}}